Regional Weather Roundup
Issued by NWS

Home | Current Version | Previous Version | Text Only | Print | Product List | Glossary On
Versions: 1 2 3 4 5 6 7 8 9 10 11 12 13 14 15 16 17 18 19 20 21 22 23 24 25 26 27 28 29 30 31 32 33 34 35 36 37 38 39 40 41 42 43 44 45 46 47 48 49 50
000
ASUS43 KDTX 041101
RWRMI
MICHIGAN HOURLY REGIONAL WEATHER ROUNDUP
NATIONAL WEATHER SERVICE DETROIT/PONTIAC MI
700 AM EDT WED MAY 04 2016

NOTE: "FAIR" INDICATES FEW OR NO CLOUDS BELOW 12,000 FEET WITH NO
SIGNIFICANT WEATHER AND/OR OBSTRUCTION TO VISIBILITY.

MIZ047>049-052>055-059>063-066>070-074>076-081>083-041200-
SOUTHEAST LOWER MICHIGAN

CITY           SKY/WX    TMP DP  RH WIND       PRES   REMARKS
ADRIAN         MOCLDY    49  44  83 S7        29.62F
ALMA           CLOUDY    47  44  86 MISG      29.57S
ANN ARBOR      CLOUDY    49  45  86 S6        29.61F
BAD AXE        CLOUDY    50  43  77 S7        29.60S
CARO           CLOUDY    51  44  76 SE5       29.58F
DETROIT CITY   CLOUDY    51  44  77 SW5       29.64S
DETROIT        LGT RAIN  50  45  83 S3        29.64S
GROSSE ILE     CLOUDY    52  48  87 S5        29.62F
HILLSDALE      MOCLDY    49  42  74 S5        29.60F
HOWELL         CLOUDY    51  43  73 S9        29.59S

CITY           SKY/WX    TMP DP  RH WIND       PRES   REMARKS
JACKSON        CLOUDY    51  44  77 S8        29.59F
LAMBERTVILLE   CLOUDY    51  46  83 S6        29.63F
LANSING        CLOUDY    52  43  71 S9        29.58F
LAPEER         LGT RAIN  51  42  70 S10       29.60S
MASON          CLOUDY    50  44  78 S5        29.58F
MONROE         LGT RAIN  50  47  88 S6        29.62S
PONTIAC        DRIZZLE   50  45  83 S7        29.60F
PORT HOPE        N/A     50  44  80 SE5       29.58F
PORT HURON     CLOUDY    46  45  93 CALM      29.64S
TRI CITIES     CLOUDY    54  42  64 S7        29.58S
MIDLAND        CLOUDY    46  40  77 CALM      29.57S
TROY           RAIN      50  47  87 S6        29.64F
SAGINAW HB     CLOUDY    50  43  76 CALM      29.57S
$$
MIZ043>046-050>051-056>058-064>065-071>073-077>080-041200-
SOUTHWEST LOWER MICHIGAN

CITY           SKY/WX    TMP DP  RH WIND       PRES   REMARKS
BATTLE CREEK   CLOUDY    50  45  83 S6        29.57F
BENTON HARBOR  RAIN      46  44  93 NW6       29.61R FOG
BIG RAPIDS     RAIN      45  42  89 NW7       29.59R
COLDWATER      LGT RAIN  51  45  82 S6        29.59F
FREMONT        RAIN      46  46 100 N8        29.60R
HOLLAND        RAIN     N/A N/A N/A VRB7G16   29.60R
GRAND RAPIDS   CLOUDY    51  44  77 N8        29.57S
IONIA          CLOUDY    51  45  79 S7        29.56R
KALAMAZOO      CLOUDY    52  45  77 SW7       29.57F
LUDINGTON      CLOUDY    40  39  97 N15G25    29.66R WCI  32
MARSHALL       CLOUDY    52  44  73 S6        29.57F
MOUNT PLEASANT   N/A     49  42  79 CALM      29.57R
MUSKEGON       LGT RAIN  47  43  86 W15       29.61R
$$
MIZ016>042-041200-
NORTHERN LOWER MICHIGAN

CITY           SKY/WX    TMP DP  RH WIND       PRES   REMARKS
ALPENA         CLOUDY    47  44  90 NW6       29.62R
BEAVER ISLAND  CLOUDY    41  40  96 N10G16    29.67R
BELLAIRE       LGT SNOW  43  42  93 CALM      29.64R
CADILLAC       LGT RAIN  41  40  95 N7        29.60R
CHARLEVOIX     RAIN      40  40 100 N7        29.68R
FRANKFORT      CLOUDY    41  39  95 N10       29.67R
GAYLORD        LGT RAIN  46  44  93 NE3       29.60S FOG
HARBOR SPRINGS RAIN      43  42  97 N7        29.63R
HOUGHTON LAKE  RAIN      46  45  96 NW8       29.58S FOG
MANISTEE       CLOUDY    41  37  87 N12G21    29.66R
OSCODA         CLOUDY    46  43  90 NE5       29.59S
PELLSTON       LGT RAIN  44  42  93 N6        29.65R FOG
ROGERS CITY    RAIN      45  43  93 CALM      29.64R
TRAVERSE CITY  LGT RAIN  43  40  89 N6        29.64R FOG
$$
MIZ007>008-015-041200-
EASTERN UPPER MICHIGAN

CITY           SKY/WX    TMP DP  RH WIND       PRES   REMARKS
KINROSS          N/A     39  39 100 NW9       29.65R WCI  33
MACKINAC ISLAN LGT RAIN  40  40 100 N10G16    29.64R WCI  34
NEWBERRY       CLOUDY    39  38  97 NW12      29.69R WCI  32
S. S. MARIE    CLOUDY    43  40  89 NW5       29.65R
MUNISING         N/A     39  34  82 N18G26    29.75R WCI  30
$$
MIZ004>006-011>014-085-041200-
CENTRAL UPPER MICHIGAN

CITY           SKY/WX    TMP DP  RH WIND       PRES   REMARKS
MANISTIQUE     CLOUDY    39  36  90 N14G21    29.70R WCI  31
ESCANABA       CLOUDY    39  36  87 N12G21    29.74R WCI  32
MENOMINEE      PTCLDY    41  36  81 N13       29.75S
SAWYER-GWINN   CLOUDY    36  32  87 N18G29    29.75R WCI  25
$$
MIZ001>003-009>011-084-041200-
WESTERN UPPER MICHIGAN

CITY           SKY/WX    TMP DP  RH WIND       PRES   REMARKS
IRON MOUNTAIN  CLOUDY    40  31  70 N22G29    29.76R WCI  30
HOUGHTON       MOCLDY    37  31  78 N14       29.82R WCI  28
COPPER HARBOR    N/A     39  35  86 NE18      29.82R WCI  30
IRONWOOD         N/A     36  34  93 NW7       29.84R WCI  30
$$

ABBREVIATIONS USED IN REMARKS
   TC - TEMPERATURE IN CELSIUS
  WCI - WIND CHILL INDEX
   HX - HEAT INDEX
  VSB - VISIBILITY




USA.gov is the U.S. government's official web portal to all federal, state and local government web resources and services.